EWG256 EDDH-EDDP

Flight info

Callsign EWG256
Flight time 0h 39m
Altitude 23000
Route AMLUH2G/33 AMLUH M852 DENIX Z113 SAS Z88 UPDAT T236 ADMOS T959 KOJEC KOJEC1R
Aircraft A320/M-SDE3FGHIRWY/LB1

Departure

Time 2026-05-07 19:25
Airport Hamburg Helmut Schmidt Airport (EDDH)

Arrival

Time 2026-05-07 20:05
Airport Leipzig/Halle Airport (EDDP)
Time Latitude Longitude Altitude Speed Heading
2026-05-07 19:03 53.62892 10.00214 51 ft 0 kts 122°
2026-05-07 19:18 53.62892 10.00212 51 ft 2 kts 122°
2026-05-07 19:18 53.62905 10.00179 47 ft 4 kts 122°
2026-05-07 19:19 53.62916 10.00149 51 ft 2 kts 122°
2026-05-07 19:19 53.62930 10.00123 49 ft 4 kts 179°
2026-05-07 19:19 53.62950 10.00134 46 ft 2 kts 212°
2026-05-07 19:19 53.62951 10.00136 46 ft 1 kts 212°
2026-05-07 19:23 53.62904 10.00085 49 ft 13 kts 213°
2026-05-07 19:23 53.62856 9.99999 50 ft 7 kts 238°
2026-05-07 19:23 53.62834 9.99929 47 ft 7 kts 242°
2026-05-07 19:23 53.62813 9.99853 49 ft 9 kts 254°
2026-05-07 19:24 53.62847 9.99759 49 ft 1 kts 332°
2026-05-07 19:24 53.62858 9.99749 48 ft 7 kts 332°
2026-05-07 19:24 53.62990 9.99640 47 ft 27 kts 335°
2026-05-07 19:24 53.63297 9.99380 51 ft 84 kts 332°
2026-05-07 19:25 53.64016 9.98757 51 ft 145 kts 334°
2026-05-07 19:25 53.65023 9.97878 312 ft 174 kts 329°
2026-05-07 19:25 53.66119 9.96956 926 ft 175 kts 341°
2026-05-07 19:25 53.67248 9.96098 1619 ft 185 kts 337°
2026-05-07 19:26 53.68471 9.95082 2023 ft 206 kts 342°
2026-05-07 19:26 53.69895 9.94719 2544 ft 215 kts
2026-05-07 19:26 53.71407 9.94729 3401 ft 218 kts
2026-05-07 19:26 53.72809 9.95548 4238 ft 217 kts 41°
2026-05-07 19:27 53.73628 9.97624 5110 ft 215 kts 75°
2026-05-07 19:27 53.73954 10.00097 5992 ft 217 kts 78°
2026-05-07 19:27 53.74113 10.02636 6801 ft 221 kts 94°
2026-05-07 19:27 53.73714 10.05193 7418 ft 236 kts 115°
2026-05-07 19:28 53.72884 10.07697 7983 ft 250 kts 118°
2026-05-07 19:28 53.71984 10.10343 8548 ft 270 kts 119°
2026-05-07 19:28 53.71037 10.13141 9328 ft 279 kts 119°
2026-05-07 19:28 53.70054 10.16029 9939 ft 287 kts 121°
2026-05-07 19:29 53.68811 10.18657 10097 ft 290 kts 136°
2026-05-07 19:29 53.67108 10.20775 10307 ft 319 kts 151°
2026-05-07 19:29 53.64964 10.22176 10590 ft 343 kts 164°
2026-05-07 19:29 53.62603 10.23260 11071 ft 357 kts 165°
2026-05-07 19:30 53.60217 10.24342 11807 ft 363 kts 165°
2026-05-07 19:30 53.57769 10.25453 12585 ft 367 kts 165°
2026-05-07 19:30 53.55254 10.26599 13382 ft 371 kts 165°
2026-05-07 19:30 53.52777 10.27732 14124 ft 376 kts 165°
2026-05-07 19:31 53.50242 10.28895 14802 ft 380 kts 165°
2026-05-07 19:31 53.47678 10.30070 15477 ft 383 kts 165°
2026-05-07 19:31 53.45089 10.31252 16145 ft 387 kts 165°
2026-05-07 19:31 53.42474 10.32444 16804 ft 391 kts 165°
2026-05-07 19:32 53.40722 10.33237 17223 ft 393 kts 166°
2026-05-07 19:32 53.38079 10.34424 17850 ft 397 kts 166°
2026-05-07 19:32 53.35396 10.35625 18472 ft 401 kts 166°
2026-05-07 19:32 53.32687 10.36839 19016 ft 404 kts 166°
2026-05-07 19:33 53.29961 10.38062 19556 ft 407 kts 166°
2026-05-07 19:33 53.27223 10.39288 20093 ft 410 kts 166°
2026-05-07 19:33 53.24444 10.40531 20620 ft 413 kts 166°
2026-05-07 19:33 53.20743 10.42185 21303 ft 418 kts 166°
2026-05-07 19:34 53.18856 10.43029 21641 ft 420 kts 166°
2026-05-07 19:34 53.16010 10.44298 22171 ft 423 kts 166°
2026-05-07 19:34 53.13124 10.45252 22643 ft 425 kts 175°
2026-05-07 19:34 53.10166 10.45433 23033 ft 426 kts 184°
2026-05-07 19:35 53.07182 10.45135 23114 ft 433 kts 185°
2026-05-07 19:35 53.04131 10.44823 23113 ft 446 kts 185°
2026-05-07 19:35 53.01017 10.44503 23114 ft 450 kts 185°
2026-05-07 19:35 52.97882 10.44187 23115 ft 451 kts 184°
2026-05-07 19:36 52.94745 10.43879 23113 ft 452 kts 184°
2026-05-07 19:36 52.91606 10.43573 23110 ft 452 kts 184°
2026-05-07 19:36 52.88511 10.43271 23110 ft 452 kts 184°
2026-05-07 19:36 52.85334 10.42962 23114 ft 452 kts 184°
2026-05-07 19:37 52.82234 10.42662 23112 ft 452 kts 184°
2026-05-07 19:37 52.79058 10.42357 23112 ft 452 kts 184°
2026-05-07 19:37 52.75958 10.42053 23111 ft 452 kts 185°
2026-05-07 19:37 52.72859 10.41271 23112 ft 450 kts 194°
2026-05-07 19:38 52.69890 10.39693 23111 ft 449 kts 204°
2026-05-07 19:38 52.67113 10.37366 23109 ft 448 kts 212°
2026-05-07 19:38 52.64557 10.34443 23107 ft 447 kts 217°
2026-05-07 19:38 52.62035 10.31455 23107 ft 447 kts 216°
2026-05-07 19:39 52.59500 10.28467 23103 ft 447 kts 216°
2026-05-07 19:39 52.56969 10.25497 23106 ft 447 kts 216°
2026-05-07 19:39 52.54437 10.22533 23109 ft 447 kts 216°
2026-05-07 19:39 52.51898 10.19564 23108 ft 447 kts 216°
2026-05-07 19:40 52.49360 10.16601 23106 ft 447 kts 216°
2026-05-07 19:40 52.46823 10.13647 23109 ft 447 kts 216°
2026-05-07 19:40 52.44288 10.10697 23110 ft 447 kts 216°
2026-05-07 19:40 52.41751 10.07745 23114 ft 447 kts 216°
2026-05-07 19:41 52.39213 10.04790 23114 ft 447 kts 216°
2026-05-07 19:41 52.36573 10.02249 23112 ft 448 kts 204°
2026-05-07 19:41 52.33581 10.00886 23122 ft 450 kts 188°
2026-05-07 19:41 52.30442 10.00894 23112 ft 452 kts 173°
2026-05-07 19:42 52.27419 10.02306 23110 ft 454 kts 156°
2026-05-07 19:42 52.24718 10.05088 23109 ft 456 kts 140°
2026-05-07 19:42 52.22381 10.08589 23096 ft 457 kts 137°
2026-05-07 19:42 52.20089 10.12086 23093 ft 457 kts 137°
2026-05-07 19:43 52.17772 10.15625 23095 ft 457 kts 137°
2026-05-07 19:43 52.15448 10.19170 23094 ft 458 kts 137°
2026-05-07 19:43 52.13126 10.22710 23095 ft 458 kts 137°
2026-05-07 19:43 52.10795 10.26258 23093 ft 458 kts 137°
2026-05-07 19:44 52.08466 10.29784 23099 ft 458 kts 138°
2026-05-07 19:44 52.06139 10.33294 23096 ft 458 kts 138°
2026-05-07 19:44 52.03796 10.36819 23097 ft 458 kts 138°
2026-05-07 19:44 52.01452 10.40351 23100 ft 458 kts 138°
2026-05-07 19:45 51.99114 10.43870 23103 ft 458 kts 138°
2026-05-07 19:45 51.96745 10.47419 23107 ft 459 kts 138°
2026-05-07 19:45 51.94429 10.50889 23100 ft 459 kts 138°
2026-05-07 19:45 51.92085 10.54397 23102 ft 459 kts 138°
2026-05-07 19:46 51.89743 10.57897 23102 ft 459 kts 138°
2026-05-07 19:46 51.87393 10.61404 23096 ft 459 kts 138°
2026-05-07 19:46 51.85044 10.64902 23098 ft 459 kts 138°
2026-05-07 19:46 51.82692 10.68407 23100 ft 459 kts 138°
2026-05-07 19:47 51.80345 10.71901 23102 ft 459 kts 138°
2026-05-07 19:47 51.77988 10.75399 23065 ft 462 kts 138°
2026-05-07 19:47 51.75622 10.78917 22789 ft 464 kts 137°
2026-05-07 19:47 51.73461 10.82790 22514 ft 464 kts 128°
2026-05-07 19:48 51.71710 10.87150 22241 ft 463 kts 118°
2026-05-07 19:48 51.70393 10.91889 21976 ft 462 kts 111°
2026-05-07 19:48 51.69236 10.96700 21711 ft 460 kts 111°
2026-05-07 19:48 51.68078 11.01485 21446 ft 458 kts 111°
2026-05-07 19:49 51.66917 11.06256 21187 ft 456 kts 111°
2026-05-07 19:49 51.65755 11.10996 20929 ft 454 kts 111°
2026-05-07 19:49 51.64592 11.15720 20674 ft 452 kts 111°
2026-05-07 19:49 51.63466 11.20425 20407 ft 449 kts 108°
2026-05-07 19:50 51.62874 11.25301 19736 ft 442 kts 95°
2026-05-07 19:50 51.62597 11.30192 19007 ft 438 kts 95°
2026-05-07 19:50 51.62336 11.35045 18307 ft 433 kts 95°
2026-05-07 19:50 51.62075 11.39853 17549 ft 429 kts 95°
2026-05-07 19:51 51.61811 11.44605 16842 ft 423 kts 95°
2026-05-07 19:51 51.61545 11.49289 16150 ft 418 kts 95°
2026-05-07 19:51 51.61275 11.53920 15479 ft 413 kts 95°
2026-05-07 19:51 51.61005 11.58483 14830 ft 408 kts 95°
2026-05-07 19:52 51.60730 11.63003 14211 ft 403 kts 95°
2026-05-07 19:52 51.60450 11.67471 13517 ft 399 kts 95°
2026-05-07 19:52 51.60170 11.71870 12805 ft 394 kts 95°
2026-05-07 19:52 51.59889 11.76244 12111 ft 390 kts 95°
2026-05-07 19:53 51.59611 11.80561 11428 ft 385 kts 95°
2026-05-07 19:53 51.59334 11.84813 10930 ft 377 kts 95°
2026-05-07 19:53 51.59066 11.88848 10752 ft 347 kts 95°
2026-05-07 19:53 51.58817 11.92536 10528 ft 320 kts 95°
2026-05-07 19:54 51.58574 11.96010 10043 ft 306 kts 97°
2026-05-07 19:54 51.57881 11.99156 9516 ft 296 kts 122°
2026-05-07 19:54 51.56447 12.01446 8984 ft 289 kts 148°
2026-05-07 19:54 51.54576 12.02446 8467 ft 285 kts 175°
2026-05-07 19:55 51.52629 12.01984 7958 ft 288 kts 202°
2026-05-07 19:55 51.50998 12.00152 7449 ft 290 kts 229°
2026-05-07 19:55 51.50085 11.97352 7199 ft 280 kts 258°
2026-05-07 19:55 51.49890 11.94325 7075 ft 266 kts 269°
2026-05-07 19:56 51.49834 11.91420 6944 ft 255 kts 270°
2026-05-07 19:56 51.49794 11.88620 6757 ft 247 kts 270°
2026-05-07 19:56 51.49757 11.85879 6450 ft 245 kts 270°
2026-05-07 19:56 51.49722 11.83150 6105 ft 244 kts 270°
2026-05-07 19:57 51.49688 11.80432 5767 ft 243 kts 270°
2026-05-07 19:57 51.49657 11.77735 5434 ft 241 kts 270°
2026-05-07 19:57 51.49465 11.75085 5110 ft 240 kts 249°
2026-05-07 19:57 51.48525 11.72941 4777 ft 237 kts 217°
2026-05-07 19:58 51.47039 11.71941 4418 ft 233 kts 184°
2026-05-07 19:58 51.45441 11.71916 4072 ft 232 kts 173°
2026-05-07 19:58 51.43932 11.72612 3986 ft 216 kts 151°
2026-05-07 19:58 51.42750 11.73906 3992 ft 203 kts 135°
2026-05-07 19:59 51.41856 11.75637 3990 ft 198 kts 119°
2026-05-07 19:59 51.41236 11.77598 3994 ft 196 kts 106°
2026-05-07 19:59 51.41067 11.79736 4020 ft 194 kts 85°
2026-05-07 19:59 51.41176 11.81900 4006 ft 198 kts 84°
2026-05-07 20:00 51.41296 11.84195 3979 ft 219 kts 84°
2026-05-07 20:00 51.41421 11.86660 3945 ft 223 kts 84°
2026-05-07 20:00 51.41545 11.89129 3604 ft 223 kts 85°
2026-05-07 20:00 51.41668 11.91609 3250 ft 223 kts 85°
2026-05-07 20:01 51.41790 11.94072 3031 ft 220 kts 84°
2026-05-07 20:01 51.41912 11.96527 3000 ft 220 kts 84°
2026-05-07 20:01 51.42028 11.98885 2998 ft 204 kts 84°
2026-05-07 20:01 51.42135 12.01070 2948 ft 192 kts 84°
2026-05-07 20:02 51.42238 12.03177 2764 ft 188 kts 84°
2026-05-07 20:02 51.42339 12.05253 2516 ft 187 kts 84°
2026-05-07 20:02 51.42440 12.07323 2268 ft 186 kts 84°
2026-05-07 20:02 51.42541 12.09409 2022 ft 188 kts 84°
2026-05-07 20:03 51.42638 12.11433 1770 ft 173 kts 84°
2026-05-07 20:03 51.42724 12.13237 1529 ft 153 kts 84°
2026-05-07 20:03 51.42802 12.14857 1301 ft 140 kts 84°
2026-05-07 20:03 51.42875 12.16381 1037 ft 135 kts 84°
2026-05-07 20:04 51.42944 12.17871 863 ft 134 kts 84°
2026-05-07 20:04 51.43023 12.19350 726 ft 133 kts 84°
2026-05-07 20:04 51.43093 12.20825 572 ft 132 kts 83°
2026-05-07 20:04 51.43161 12.22263 432 ft 130 kts 84°
2026-05-07 20:05 51.43228 12.23505 449 ft 90 kts 86°
2026-05-07 20:05 51.43240 12.24130 446 ft 19 kts 116°
2026-05-07 20:05 51.43169 12.24168 447 ft 9 kts 180°
2026-05-07 20:05 51.43108 12.24176 439 ft 9 kts 173°
2026-05-07 20:06 51.43041 12.24188 440 ft 10 kts 175°
2026-05-07 20:06 51.43032 12.24189 439 ft 0 kts 175°
2026-05-07 20:07 51.43023 12.24190 442 ft 0 kts 175°
2026-05-07 20:07 51.42979 12.24200 437 ft 10 kts 163°
2026-05-07 20:07 51.42941 12.24270 435 ft 8 kts 99°
2026-05-07 20:08 51.42940 12.24349 446 ft 6 kts 83°
2026-05-07 20:08 51.42949 12.24485 447 ft 20 kts 84°
2026-05-07 20:08 51.42963 12.24707 448 ft 18 kts 84°
2026-05-07 20:08 51.42970 12.24894 450 ft 15 kts 86°
2026-05-07 20:09 51.42956 12.25056 449 ft 16 kts 132°
2026-05-07 20:09 51.42857 12.25052 453 ft 16 kts 194°
2026-05-07 20:09 51.42686 12.24988 462 ft 28 kts 193°
2026-05-07 20:10 51.42326 12.24852 480 ft 25 kts 193°
2026-05-07 20:10 51.42160 12.24790 482 ft 24 kts 193°
2026-05-07 20:10 51.41995 12.24725 483 ft 25 kts 194°
2026-05-07 20:10 51.41831 12.24662 480 ft 27 kts 193°
2026-05-07 20:11 51.41695 12.24611 475 ft 16 kts 197°
2026-05-07 20:11 51.41651 12.24464 474 ft 17 kts 265°
2026-05-07 20:11 51.41644 12.24304 475 ft 12 kts 266°
2026-05-07 20:11 51.41638 12.24172 475 ft 12 kts 265°
2026-05-07 20:12 51.41632 12.24033 471 ft 12 kts 266°
2026-05-07 20:12 51.41626 12.23903 469 ft 10 kts 266°
2026-05-07 20:12 51.41621 12.23793 469 ft 10 kts 265°
2026-05-07 20:12 51.41614 12.23637 467 ft 14 kts 265°
2026-05-07 20:13 51.41606 12.23470 463 ft 9 kts 266°
2026-05-07 20:13 51.41605 12.23452 462 ft 8 kts 266°
2026-05-07 20:13 51.41600 12.23258 464 ft 14 kts 271°
2026-05-07 20:13 51.41615 12.23140 465 ft 9 kts 285°
2026-05-07 20:14 51.41632 12.23041 464 ft 14 kts 286°
2026-05-07 20:14 51.41650 12.22938 461 ft 10 kts 285°
2026-05-07 20:14 51.41670 12.22816 464 ft 12 kts 284°
2026-05-07 20:14 51.41696 12.22667 461 ft 16 kts 286°
2026-05-07 20:15 51.41728 12.22498 457 ft 9 kts 287°
2026-05-07 20:15 51.41752 12.22374 455 ft 15 kts 288°
2026-05-07 20:15 51.41778 12.22190 450 ft 17 kts 284°
2026-05-07 20:15 51.41786 12.22137 449 ft 0 kts 285°
2026-05-07 20:16 51.41790 12.22116 448 ft 11 kts 285°
2026-05-07 20:16 51.41806 12.22025 446 ft 2 kts 285°
2026-05-07 20:16 51.41820 12.21942 438 ft 19 kts 285°
2026-05-07 20:17 51.41867 12.21667 433 ft 28 kts 284°
2026-05-07 20:17 51.41905 12.21444 432 ft 17 kts 286°
2026-05-07 20:17 51.41922 12.21384 434 ft 6 kts 324°
2026-05-07 20:17 51.41968 12.21389 434 ft 5 kts 13°
2026-05-07 20:18 51.41991 12.21400 428 ft 0 kts 17°